Home > Weather > Khan Yunis > Past weeks

Flag for Palestinian Territories Weather for the Past 2 Weeks in Khan Yunis, Gaza Strip, Palestinian Territories

Now
43 °F

Sunny.


Feels Like: 43 °F
Forecast: 54 / 72 °F
Wind: 2 mph from South

Location: El Arish

Current Time: Feb 13, 2016 at 7:58:13 AM

Latest Report: Feb 13, 2016 at 7:00 AM


Visibility: 10 mi

Pressure: 30.12 "Hg

Humidity: 100%

Dew point: 43 °F

Location of Khan YunisLocation

Historic Weather in Khan Yunis — Graph

°F

Khan Yunis Temperature Yesterday

Maximum temperature yesterday: 72 °F (at 1:00 PM)
Minimum temperature yesterday: 43 °F (at 4:00 AM)
Average temperature yesterday: 55 °F

High & Low Weather Summary for the Past Weeks

 TemperatureHumidityPressure
High79 °F (Feb 4, 3:00 PM)100% (Jan 29, 8:00 PM)30.45 "Hg (Jan 29, 8:00 PM)
Low37 °F (Feb 9, 5:00 AM)21% (Feb 4, 3:00 PM)29.95 "Hg (Feb 5, 6:00 AM)
Average54 °F81%30.18 "Hg
* Reported Jan 29 8:00 AM — Feb 13 6:00 AM, Khan Yunis, Weather by CustomWeather, © 2016

Note: Actual official high and low records may vary slightly from our data, if they occured in-between our weather recording intervals... More about our weather records

Advertising

Khan Yunis Weather History for the Previous 24 Hours

 ConditionsComfort  
Time TempWeatherWind HumidityBarometerVisibility
6:00 AM
Sat, Feb 13
43 °FClear.3 mph100%30.12 "Hg10 mi
5:00 AM45 °FClear.No wind93%30.12 "Hg10 mi
4:00 AM45 °FClear.5 mph93%30.12 "Hg10 mi
3:00 AM46 °FClear.5 mph93%30.15 "Hg10 mi
2:00 AM46 °FClear.2 mph87%30.15 "Hg10 mi
1:00 AM46 °FClear.2 mph100%30.18 "Hg10 mi
12:00 AM48 °FClear.2 mph87%30.18 "Hg10 mi
11:00 PM
Fri, Feb 12
50 °FClear.No wind82%30.18 "Hg10 mi
10:00 PM50 °FClear.2 mph82%30.18 "Hg10 mi
9:00 PM52 °FClear.No wind77%30.18 "Hg10 mi
8:00 PM55 °FClear.No wind72%30.18 "Hg10 mi
7:00 PM55 °FClear.2 mph72%30.18 "Hg10 mi
6:00 PM61 °FClear.3 mph63%30.18 "Hg10 mi
5:00 PM64 °FSunny.7 mph60%30.18 "Hg10 mi
4:00 PM68 °FSunny.7 mph56%30.18 "Hg10 mi
3:00 PM72 °FSunny.6 mph47%30.18 "Hg10 mi
2:00 PM72 °FSunny.2 mph38%30.18 "Hg10 mi
1:00 PM72 °FSunny.3 mph38%30.18 "Hg10 mi
12:00 PM66 °FSunny.5 mph52%30.21 "Hg10 mi
11:00 AM66 °FSunny.6 mph52%30.24 "Hg10 mi
10:30 AM61 °FSunny.8 mph77%30.24 "Hg10 mi
9:00 AM55 °FSunny.7 mph82%30.24 "Hg10 mi
8:00 AM48 °FSunny.2 mph87%30.24 "Hg10 mi
7:00 AM45 °FSunny.2 mph93%30.24 "Hg10 mi
Weather by CustomWeather, © 2016

See weather overviewHow to use our weather pages